Location: Newark
(37.9800°N, 91.3000°W)
Time: 01:39:44
(UTC+00:00)

NOAA 19 - Pass Details

Date: 14 December 2019
Orbit: 840 x 862 km, 99.2° (Epoch: 23 January)

Event Time Altitude Azimuth Distance (km) Brightness Sun altitude
Rises 00:00:08 0° 200° (SSW) 3,418 8.9 -14.1°
Reaches altitude 10° 00:03:00 10° 214° (SW) 2,488 8.4 -14.7°
Maximum altitude 00:07:16 23° 265° (W) 1,766 7.8 -15.5°
Drops below altitude 10° 00:11:34 10° 316° (NW) 2,505 8.0 -16.3°
Sets 00:14:29 0° 331° (NNW) 3,447 8.5 -16.8°
